When you browse on this site, cookies collect data to enhance your experience and personalize the content and advertising you see.
Visit our Privacy Policy to learn more. By continuing to use the site, you agree to this use of cookies and data.
  • în România
  • Lista ţărilor
  • Pe 7 zile
  • Temperatura apei
  • Hartă satelitară
  • Meteo pe hartă
  • Widget-uri
  • user-avatar
    Intrare

    Meteo pe oră la Ocotal

    Astăzi, 19 Iulie, Vineri

    Timp Temperatura Precipitaţii Vânt Presiune Umiditate
    00:00 +21°C° 0 mm 2 m/s 707 mmHg 95%
    01:00 +20°C° 0 mm 2 m/s 707 mmHg 96%
    02:00 +20°C° 0 mm 2 m/s 707 mmHg 97%
    03:00 +20°C° 0 mm 2 m/s 706 mmHg 98%
    04:00 +20°C° 0 mm 2 m/s 706 mmHg 97%
    05:00 +21°C° 0 mm 1 m/s 707 mmHg 97%
    06:00 +21°C° 0 mm 1 m/s 707 mmHg 97%
    07:00 +21°C° 0 mm 2 m/s 707 mmHg 91%
    08:00 +24°C° 0 mm 2 m/s 708 mmHg 85%
    09:00 +25°C° 0 mm 2 m/s 708 mmHg 78%
    10:00 +27°C° 0.1 mm 3 m/s 708 mmHg 71%
    11:00 +29°C° 0.1 mm 3 m/s 708 mmHg 64%
    12:00 +32°C° 0.1 mm 4 m/s 708 mmHg 56%
    13:00 +32°C° 0.1 mm 4 m/s 707 mmHg 58%
    14:00 +32°C° 0.1 mm 4 m/s 707 mmHg 59%
    15:00 +32°C° 0.1 mm 4 m/s 706 mmHg 60%
    16:00 +29°C° 0.5 mm 3 m/s 706 mmHg 69%
    17:00 +27°C° 0.5 mm 2 m/s 706 mmHg 77%
    18:00 +26°C° 0.5 mm 2 m/s 706 mmHg 85%
    19:00 +25°C° 0 mm 2 m/s 706 mmHg 88%
    20:00 +24°C° 0 mm 2 m/s 707 mmHg 90%
    21:00 +23°C° 0 mm 2 m/s 707 mmHg 93%
    22:00 +23°C° 0 mm 2 m/s 707 mmHg 94%
    23:00 +23°C° 0 mm 1 m/s 707 mmHg 94%

    Mâine, 20 Iulie, Sâmbătă

    Timp Temperatura Precipitaţii Vânt Presiune Umiditate
    00:00 +23°C° 0 mm 1 m/s 707 mmHg 95%
    01:00 +23°C° 0.1 mm 1 m/s 707 mmHg 95%
    02:00 +23°C° 0.1 mm 1 m/s 706 mmHg 95%
    03:00 +23°C° 0.1 mm 1 m/s 706 mmHg 96%
    04:00 +23°C° 0.1 mm 1 m/s 706 mmHg 96%
    05:00 +23°C° 0.1 mm 1 m/s 706 mmHg 96%
    06:00 +23°C° 0.1 mm 2 m/s 707 mmHg 97%
    07:00 +25°C° 0.1 mm 2 m/s 707 mmHg 90%
    08:00 +26°C° 0.1 mm 3 m/s 707 mmHg 83%
    09:00 +28°C° 0.1 mm 3 m/s 708 mmHg 76%
    10:00 +29°C° 0.1 mm 4 m/s 708 mmHg 69%
    11:00 +32°C° 0.1 mm 4 m/s 707 mmHg 62%
    12:00 +33°C° 0.1 mm 5 m/s 707 mmHg 55%
    13:00 +32°C° 0.4 mm 4 m/s 707 mmHg 59%
    14:00 +32°C° 0.4 mm 4 m/s 706 mmHg 63%
    15:00 +30°C° 0.4 mm 4 m/s 706 mmHg 67%
    16:00 +28°C° 0.4 mm 4 m/s 706 mmHg 74%
    17:00 +27°C° 0.4 mm 3 m/s 706 mmHg 81%
    18:00 +26°C° 0.4 mm 2 m/s 706 mmHg 87%
    19:00 +25°C° 0 mm 2 m/s 706 mmHg 91%
    20:00 +24°C° 0 mm 2 m/s 707 mmHg 94%
    21:00 +24°C° 0 mm 2 m/s 707 mmHg 97%
    22:00 +23°C° 0.1 mm 2 m/s 707 mmHg 97%
    23:00 +23°C° 0.1 mm 2 m/s 707 mmHg 98%

    Poimâine, 21 Iulie, Duminică

    Timp Temperatura Precipitaţii Vânt Presiune Umiditate
    00:00 +23°C° 0.1 mm 2 m/s 706 mmHg 98%
    01:00 +23°C° 0 mm 2 m/s 706 mmHg 98%
    02:00 +23°C° 0 mm 2 m/s 706 mmHg 98%
    03:00 +23°C° 0 mm 2 m/s 706 mmHg 98%
    04:00 +23°C° 0 mm 2 m/s 706 mmHg 98%
    05:00 +23°C° 0 mm 2 m/s 706 mmHg 98%
    06:00 +23°C° 0 mm 2 m/s 706 mmHg 98%
    07:00 +25°C° 0.1 mm 2 m/s 707 mmHg 89%
    08:00 +27°C° 0.1 mm 3 m/s 707 mmHg 81%
    09:00 +28°C° 0.1 mm 4 m/s 708 mmHg 72%
    10:00 +30°C° 0 mm 4 m/s 708 mmHg 66%
    11:00 +32°C° 0 mm 4 m/s 708 mmHg 59%
    12:00 +33°C° 0 mm 5 m/s 708 mmHg 52%
    13:00 +33°C° 0 mm 5 m/s 707 mmHg 52%
    14:00 +33°C° 0 mm 5 m/s 706 mmHg 52%
    15:00 +33°C° 0 mm 4 m/s 706 mmHg 51%
    16:00 +30°C° 0 mm 4 m/s 706 mmHg 60%
    17:00 +29°C° 0 mm 3 m/s 706 mmHg 68%
    18:00 +27°C° 0 mm 2 m/s 706 mmHg 77%
    19:00 +26°C° 0 mm 2 m/s 707 mmHg 82%
    20:00 +25°C° 0 mm 2 m/s 707 mmHg 88%
    21:00 +24°C° 0 mm 2 m/s 707 mmHg 93%
    22:00 +24°C° 0 mm 1 m/s 707 mmHg 94%
    23:00 +23°C° 0 mm 1 m/s 708 mmHg 96%

    22 Iulie, Luni

    Timp Temperatura Precipitaţii Vânt Presiune Umiditate
    00:00 +23°C° 0 mm 1 m/s 708 mmHg 97%
    01:00 +23°C° 0 mm 1 m/s 707 mmHg 97%
    02:00 +22°C° 0 mm 1 m/s 707 mmHg 98%
    03:00 +22°C° 0 mm 1 m/s 706 mmHg 98%
    04:00 +22°C° 0 mm 1 m/s 706 mmHg 98%
    05:00 +22°C° 0 mm 1 m/s 707 mmHg 98%
    06:00 +22°C° 0 mm 1 m/s 707 mmHg 98%
    07:00 +24°C° 0 mm 2 m/s 707 mmHg 87%
    08:00 +26°C° 0 mm 2 m/s 708 mmHg 76%
    09:00 +28°C° 0 mm 2 m/s 709 mmHg 65%
    10:00 +29°C° 0 mm 3 m/s 708 mmHg 60%
    11:00 +30°C° 0 mm 3 m/s 708 mmHg 56%
    12:00 +31°C° 0 mm 3 m/s 708 mmHg 51%
    13:00 +31°C° 0 mm 3 m/s 707 mmHg 51%
    14:00 +33°C° 0 mm 4 m/s 707 mmHg 51%
    15:00 +33°C° 0 mm 4 m/s 706 mmHg 50%
    16:00 +30°C° 0 mm 3 m/s 706 mmHg 58%
    17:00 +28°C° 0 mm 2 m/s 706 mmHg 67%
    18:00 +27°C° 0 mm 2 m/s 706 mmHg 75%
    19:00 +26°C° 0 mm 2 m/s 707 mmHg 80%
    20:00 +24°C° 0 mm 2 m/s 707 mmHg 86%
    21:00 +23°C° 0 mm 2 m/s 708 mmHg 91%
    22:00 +23°C° 0 mm 1 m/s 708 mmHg 93%
    23:00 +22°C° 0 mm 1 m/s 708 mmHg 95%

    23 Iulie, Marţi

    Timp Temperatura Precipitaţii Vânt Presiune Umiditate
    00:00 +22°C° 0 mm 1 m/s 708 mmHg 97%
    01:00 +22°C° 0 mm 1 m/s 708 mmHg 97%
    02:00 +21°C° 0 mm 1 m/s 707 mmHg 98%
    03:00 +21°C° 0 mm 1 m/s 707 mmHg 98%
    04:00 +21°C° 0 mm 1 m/s 707 mmHg 98%
    05:00 +21°C° 0 mm 1 m/s 707 mmHg 98%
    06:00 +21°C° 0 mm 1 m/s 707 mmHg 98%
    07:00 +23°C° 0 mm 1 m/s 708 mmHg 87%
    08:00 +26°C° 0 mm 2 m/s 708 mmHg 75%
    09:00 +28°C° 0 mm 2 m/s 709 mmHg 64%
    10:00 +29°C° 0 mm 2 m/s 709 mmHg 59%
    11:00 +30°C° 0 mm 3 m/s 708 mmHg 54%
    12:00 +33°C° 0 mm 3 m/s 708 mmHg 49%
    13:00 +33°C° 0 mm 3 m/s 707 mmHg 48%
    14:00 +33°C° 0 mm 3 m/s 707 mmHg 48%
    15:00 +33°C° 0 mm 3 m/s 706 mmHg 48%
    16:00 +30°C° 0 mm 2 m/s 706 mmHg 56%
    17:00 +28°C° 0 mm 2 m/s 707 mmHg 64%
    18:00 +27°C° 0 mm 1 m/s 707 mmHg 73%
    19:00 +26°C° 0 mm 1 m/s 707 mmHg 78%
    20:00 +24°C° 0 mm 1 m/s 708 mmHg 83%
    21:00 +23°C° 0 mm 1 m/s 708 mmHg 88%
    22:00 +23°C° 0 mm 1 m/s 708 mmHg 91%
    23:00 +22°C° 0 mm 1 m/s 708 mmHg 93%

    24 Iulie, Miercuri

    Timp Temperatura Precipitaţii Vânt Presiune Umiditate
    00:00 +22°C° 0 mm 1 m/s 708 mmHg 96%
    01:00 +21°C° 0 mm 1 m/s 707 mmHg 97%
    02:00 +21°C° 0 mm 1 m/s 707 mmHg 97%
    03:00 +21°C° 0 mm 1 m/s 707 mmHg 98%
    04:00 +21°C° 0 mm 1 m/s 707 mmHg 98%
    05:00 +21°C° 0 mm 1 m/s 707 mmHg 98%
    06:00 +21°C° 0 mm 1 m/s 707 mmHg 98%
    07:00 +23°C° 0 mm 1 m/s 708 mmHg 88%
    08:00 +25°C° 0 mm 2 m/s 708 mmHg 78%
    09:00 +27°C° 0 mm 2 m/s 709 mmHg 69%
    10:00 +28°C° 0 mm 2 m/s 708 mmHg 63%
    11:00 +30°C° 0 mm 2 m/s 708 mmHg 57%
    12:00 +31°C° 0 mm 3 m/s 708 mmHg 52%
    13:00 +33°C° 0.1 mm 3 m/s 707 mmHg 53%
    14:00 +33°C° 0.1 mm 3 m/s 706 mmHg 54%
    15:00 +33°C° 0.1 mm 3 m/s 706 mmHg 56%
    16:00 +29°C° 1.6 mm 2 m/s 706 mmHg 67%
    17:00 +27°C° 1.6 mm 2 m/s 706 mmHg 79%
    18:00 +25°C° 1.6 mm 2 m/s 706 mmHg 91%
    19:00 +24°C° 0.2 mm 2 m/s 707 mmHg 93%
    20:00 +24°C° 0.2 mm 1 m/s 707 mmHg 94%
    21:00 +23°C° 0.2 mm 1 m/s 708 mmHg 96%
    22:00 +23°C° 0.1 mm 1 m/s 707 mmHg 96%
    23:00 +23°C° 0.1 mm 1 m/s 707 mmHg 97%
    Arată mai mult